Main page
METAR-TAF:

METAR-TAF

Airports :

Tabas Airport

Tabas, Iran

latitude: 33-36N, longitude: 056-55E, elevation: 710 m

Current weather observation

The report was made 59 minutes ago, at 23:00 UTC
Wind 2 kt from the West/Northwest
Temperature 19°C
Humidity 64%
Pressure 1012 hPa

METAR: OIMT 222300Z AUTO 30002KT //// // ////// 19/12 Q1012

Time: 04:29 (23:59 UTC)


TAF: missing

Weather observations and forecasts of more than 4000 airports (METAR and TAF reports).

The available stations are represented by yellow and red dots on the map.

Hover mouse over dot to see the name of the station.

Then click to see weather observations and forecasts.

To change the map : click on the green buttons with a black cross to zoom in, on the green button with a dash to zoom out, or on the green arrows for adjacent maps.


METAR-TAF: